Regional Weather Roundup
Issued by NWS Upton, NY

Current Version | Previous Version | Text Only | Print | Product List | Glossary On
Versions: 1 2 3 4 5 6 7 8 9 10 11 12 13 14 15 16 17 18 19 20 21 22 23 24 25 26 27
000 ASUS41 KOKX 271708 RWROKX REGIONAL WEATHER ROUNDUP NATIONAL WEATHER SERVICE NEW YORK NY 1200 PM EST MON FEB 27 2017 NOTE: "FAIR" INDICATES FEW OR NO CLOUDS BELOW 12,000 FEET WITH NO SIGNIFICANT WEATHER AND/OR OBSTRUCTIONS TO VISIBILITY. NYZ071-072-176-178-NJZ106-104-271800- NEW YORK CITY METRO AREA CITY SKY/WX TMP DP RH WIND PRES REMARKS Central Park SUNNY 49 23 36 VRB6 30.43F Wall St Helipt MOSUNNY 50 28 42 SW9 30.43 LaGuardia APRT CLOUDY 51 22 31 SW10 30.41S Kennedy INTL PTSUNNY 50 27 40 SW14 30.44S Breezy Point N/A 46 N/A N/A W8 N/A Newark/Liberty CLOUDY 52 24 33 SW13 30.41F Teterboro MOSUNNY 51 25 36 S10 30.40F $$ NYZ177-179-078>081-271800- LONG ISLAND NEW YORK CITY SKY/WX TMP DP RH WIND PRES REMARKS Jones Beach N/A 43 N/A N/A SW8G14 N/A Matinecock PT N/A 45 N/A N/A SW20 N/A Farmingdale MOSUNNY 48 25 40 SW12 30.43S MacArthur/ISP PTSUNNY 47 27 45 SW13 30.42F Shirley CLOUDY 46 27 47 SW15G23 30.43F Westhampton MOSUNNY 46 29 51 SW17G25 30.44F Southampton N/A 45 37 76 W14 30.40F Bridgehampton NOT AVBL East Hampton N/A 46 28 50 SW20G29 30.42S Montauk NOT AVBL $$ NYZ052-065-067-271800- HUDSON VALLEY CITY SKY/WX TMP DP RH WIND PRES REMARKS White Plains MOSUNNY 49 20 31 SW12 30.38S Newburgh SUNNY 48 23 37 W17G29 30.37S Montgomery SUNNY 50 24 36 SW15G22 30.34F Poughkeepsie SUNNY 48 18 30 SW14G21 30.35F Albany MOSUNNY 48 21 34 S10 30.29S $$ NJZ001-105-106-008-010-013-015-019>022-104-271800- NEW JERSEY CITY SKY/WX TMP DP RH WIND PRES REMARKS Newark/Liberty CLOUDY 52 24 33 SW13 30.41F Teterboro MOSUNNY 51 25 36 S10 30.40F Caldwell SUNNY 49 23 36 SW9G18 30.41F Somerville SUNNY 51 25 36 VRB5 30.40F Linden NOT AVBL Sussex PTSUNNY 48 23 37 SW10G21 30.37F Andover N/A 47 23 38 VRB7 30.38F Trenton PTSUNNY 51 27 39 SW9 30.41F Millville MOSUNNY 51 33 50 S8 30.44F Atlantic City MOSUNNY 51 29 42 S14 30.45F Wrightstown PTSUNNY 54 26 33 SW13 30.39F Toms River CLOUDY 54 23 30 SW15G22 30.43F Belmar MOSUNNY 52 18 26 SW10G18 30.43F $$ PAZ047>061-062-071-271800- EASTERN PENNSYLVANIA CITY SKY/WX TMP DP RH WIND PRES REMARKS Philadelphia PTSUNNY 51 29 42 SW13 30.43F Allentown PTSUNNY 50 28 42 SW10 30.40F Scranton CLOUDY 45 20 36 W9 30.34F $$ CTZ002-004>006-009-010-012-RIZ004-006-007-MAZ004-011-015-271800- SOUTHERN NEW ENGLAND IN CT CITY SKY/WX TMP DP RH WIND PRES REMARKS Bradley INTL PTSUNNY 50 16 25 SW18G25 30.34F Hartford SUNNY 50 19 29 W13 30.36F Danbury MOSUNNY 48 19 31 SW16 30.38F Wtrbury/Oxford PTSUNNY 48 18 29 W12G17 30.37F Bridgeport SUNNY 47 27 45 SW14 30.40F Meriden SUNNY 51 17 26 S15 30.37F New Haven CLOUDY 44 27 51 SW12G21 30.40F Chester N/A 45 21 39 SW13G21 30.38S Groton MOSUNNY 46 25 43 W15 30.40F Wilimantic SUNNY 50 17 27 W14G21 30.36F IN RI CITY SKY/WX TMP DP RH WIND PRES REMARKS Providence PTSUNNY 51 19 28 SW15 30.36F Block Island CLOUDY 45 30 55 SW20G26 30.41F Westerly MOSUNNY 46 23 40 SW13G21 30.41F IN MA CITY SKY/WX TMP DP RH WIND PRES REMARKS Boston PTSUNNY 50 20 30 SW14G24 30.32F Worcester SUNNY 45 16 31 SW14 30.28F Westfield SUNNY 50 17 27 W14G24 30.31F Provincetown SUNNY 46 29 51 SW16G25 30.35F Nantucket SUNNY 47 30 51 SW17 30.41S $$ ANZ330-335-338-340-345-350-353-355-271800- COASTAL MARINE OBSERVATIONS STATION/POSITION TIME SKY/WX TEMP WIND PRES VSBY WAVE AIR SEA DIR/SP/G HT/PER (UTC) (F) (DEG/KT/KT) (MB) (MI) (FT/S) NY HARB ENTRANCE NOT AVBL 20 S FIRE ISLAND 1650 44 43 220/ 14/ 17 1031.0 3/ 9 GREAT SOUTH BAY NOT AVBL 23 SSW MONTAUK P 1650 44 45 1031.0 4/ 5 15 E BARNEGAT LI 1630 44 N/A 3/ 9 HUDSON CANYON 1550 47 1032.1 3/ 9 KINGS POINT 1642 46 40 1029.8 EXECUTION ROCKS NOT AVBL CENTRAL LI SOUND 1615 40 260/ 10/ 10 N/A 2/ 4 EASTERN LI SOUND NOT AVBL ROBBINS REEF 1642 47 230/ 13/ 16 1030.4 $$ >>>>>>>>>>>>>>>>>>>>>>>>>>>> KEY <<<<<<<<<<<<<<<<<<<<<<<<<<< > < > SKY/WX - Sky Condition/Present Weather < > TMP - Temperature in Fahrenheit < > DP - Dew Point in Fahrenheit < > RH - Relative Humidity in Percent < > WIND - Direction (from) and Speed in MPH < > PRES - Mean Sea Level Pressure (inches of Hg) < > WCI - Wind Chill Index < > VSB - VISIBILITY IN MILES < > HX - HEAT INDEX < > TC - TEMPERATURE IN CELSIUS < > VRB - VARIABLE WIND DIRECTION < > < >>>>>>>>>>>>>>>>>>>>>>>>>>>> KEY <<<<<<<<<<<<<<<<<<<<<<<<<<<

USA.gov is the U.S. government's official web portal to all federal, state and local government web resources and services.